EN

Hourly Weather Erlangen

Today, 25 October, Sunday

Time Temperature Precipitation Wind Pressure Humidity
00:00 +9°C° 0 mm 2 mps 736 mmHg 93%
01:00 +8°C° 0 mm 2 mps 735 mmHg 94%
02:00 +8°C° 0 mm 2 mps 735 mmHg 94%
03:00 +8°C° 0 mm 2 mps 734 mmHg 94%
04:00 +8°C° 0 mm 2 mps 734 mmHg 94%
05:00 +8°C° 0 mm 2 mps 734 mmHg 94%
06:00 +8°C° 0 mm 2 mps 734 mmHg 94%
07:00 +8°C° 0 mm 2 mps 733 mmHg 94%
08:00 +9°C° 0 mm 3 mps 733 mmHg 89%
09:00 +11°C° 0 mm 3 mps 733 mmHg 84%
10:00 +12°C° 0 mm 4 mps 733 mmHg 79%
11:00 +13°C° 0 mm 4 mps 732 mmHg 75%
12:00 +14°C° 0 mm 4 mps 732 mmHg 71%
13:00 +15°C° 0 mm 4 mps 731 mmHg 67%
14:00 +16°C° 0 mm 3 mps 731 mmHg 69%
15:00 +16°C° 0 mm 3 mps 730 mmHg 72%
16:00 +15°C° 0 mm 2 mps 730 mmHg 75%
17:00 +14°C° 0 mm 2 mps 730 mmHg 80%
18:00 +13°C° 0 mm 2 mps 730 mmHg 84%
19:00 +10°C° 0 mm 2 mps 730 mmHg 89%
20:00 +10°C° 0 mm 2 mps 730 mmHg 89%
21:00 +10°C° 0 mm 2 mps 729 mmHg 88%
22:00 +10°C° 0 mm 2 mps 729 mmHg 88%
23:00 +9°C° 0 mm 2 mps 729 mmHg 89%

Tomorrow, 26 October, Monday

Time Temperature Precipitation Wind Pressure Humidity
00:00 +10°C° 0 mm 1 mps 729 mmHg 91%
01:00 +10°C° 0 mm 1 mps 729 mmHg 92%
02:00 +9°C° 0 mm 1 mps 729 mmHg 93%
03:00 +9°C° 0 mm 1 mps 729 mmHg 94%
04:00 +9°C° 0 mm 1 mps 729 mmHg 96%
05:00 +9°C° 0.3 mm 1 mps 729 mmHg 96%
06:00 +9°C° 0.3 mm 2 mps 729 mmHg 96%
07:00 +9°C° 0.3 mm 2 mps 729 mmHg 96%
08:00 +9°C° 0.6 mm 2 mps 730 mmHg 95%
09:00 +9°C° 0.6 mm 2 mps 730 mmHg 94%
10:00 +9°C° 0.6 mm 2 mps 730 mmHg 93%
11:00 +9°C° 0.6 mm 2 mps 730 mmHg 93%
12:00 +10°C° 0.6 mm 1 mps 730 mmHg 93%
13:00 +10°C° 0.6 mm 1 mps 730 mmHg 93%
14:00 +10°C° 0.1 mm 1 mps 730 mmHg 92%
15:00 +10°C° 0.1 mm 1 mps 730 mmHg 91%
16:00 +10°C° 0.1 mm 1 mps 730 mmHg 90%
17:00 +10°C° 0.1 mm 1 mps 730 mmHg 92%
18:00 +9°C° 0.1 mm 1 mps 731 mmHg 93%
19:00 +9°C° 0.1 mm 1 mps 731 mmHg 95%
20:00 +9°C° 0.1 mm 1 mps 731 mmHg 95%
21:00 +9°C° 0.1 mm 1 mps 731 mmHg 95%
22:00 +9°C° 0.1 mm 1 mps 731 mmHg 95%
23:00 +9°C° 0.1 mm 1 mps 731 mmHg 95%

Day after tomorrow, 27 October, Tuesday

Time Temperature Precipitation Wind Pressure Humidity
00:00 +8°C° 0.1 mm 1 mps 731 mmHg 94%
01:00 +8°C° 0.1 mm 1 mps 731 mmHg 94%
02:00 +8°C° 0 mm 1 mps 731 mmHg 94%
03:00 +8°C° 0 mm 1 mps 731 mmHg 94%
04:00 +8°C° 0 mm 1 mps 731 mmHg 94%
05:00 +8°C° 0 mm 1 mps 731 mmHg 94%
06:00 +7°C° 0 mm 1 mps 732 mmHg 94%
07:00 +6°C° 0 mm 2 mps 732 mmHg 94%
08:00 +7°C° 0 mm 2 mps 732 mmHg 90%
09:00 +8°C° 0 mm 2 mps 732 mmHg 87%
10:00 +9°C° 0 mm 2 mps 733 mmHg 83%
11:00 +10°C° 0.1 mm 2 mps 733 mmHg 79%
12:00 +12°C° 0.1 mm 2 mps 733 mmHg 75%
13:00 +11°C° 0.1 mm 3 mps 733 mmHg 71%
14:00 +12°C° 0.1 mm 2 mps 733 mmHg 74%
15:00 +12°C° 0.1 mm 2 mps 733 mmHg 76%
16:00 +11°C° 0.1 mm 1 mps 733 mmHg 79%
17:00 +9°C° 0 mm 2 mps 733 mmHg 83%
18:00 +8°C° 0 mm 2 mps 733 mmHg 86%
19:00 +7°C° 0 mm 2 mps 733 mmHg 90%
20:00 +7°C° 0 mm 2 mps 733 mmHg 91%
21:00 +6°C° 0 mm 2 mps 733 mmHg 91%
22:00 +5°C° 0 mm 3 mps 733 mmHg 91%
23:00 +5°C° 0 mm 3 mps 733 mmHg 90%

28 October, Wednesday

Time Temperature Precipitation Wind Pressure Humidity
00:00 +5°C° 0 mm 3 mps 733 mmHg 90%
01:00 +5°C° 0 mm 3 mps 733 mmHg 89%
02:00 +5°C° 0 mm 3 mps 733 mmHg 85%
03:00 +6°C° 0 mm 4 mps 733 mmHg 82%
04:00 +6°C° 0 mm 4 mps 732 mmHg 79%
05:00 +6°C° 0.3 mm 4 mps 733 mmHg 80%
06:00 +6°C° 0.3 mm 4 mps 733 mmHg 81%
07:00 +6°C° 0.3 mm 4 mps 733 mmHg 83%
08:00 +7°C° 0.1 mm 4 mps 733 mmHg 81%
09:00 +8°C° 0.1 mm 4 mps 733 mmHg 79%
10:00 +9°C° 0.1 mm 5 mps 733 mmHg 77%
11:00 +11°C° 0 mm 4 mps 733 mmHg 75%
12:00 +12°C° 0 mm 4 mps 733 mmHg 73%
13:00 +12°C° 0 mm 4 mps 733 mmHg 71%
14:00 +12°C° 0 mm 3 mps 733 mmHg 73%
15:00 +12°C° 0 mm 3 mps 733 mmHg 76%
16:00 +13°C° 0 mm 2 mps 733 mmHg 79%
17:00 +12°C° 0 mm 2 mps 733 mmHg 81%
18:00 +10°C° 0 mm 3 mps 734 mmHg 83%
19:00 +9°C° 0 mm 3 mps 734 mmHg 86%
20:00 +10°C° 0 mm 3 mps 734 mmHg 85%
21:00 +10°C° 0 mm 4 mps 734 mmHg 84%
22:00 +10°C° 0 mm 4 mps 734 mmHg 83%
23:00 +10°C° 0.1 mm 4 mps 734 mmHg 83%

29 October, Thursday

Time Temperature Precipitation Wind Pressure Humidity
00:00 +9°C° 0.1 mm 5 mps 734 mmHg 83%
01:00 +10°C° 0.1 mm 5 mps 734 mmHg 83%
02:00 +10°C° 0.2 mm 5 mps 734 mmHg 84%
03:00 +9°C° 0.2 mm 5 mps 735 mmHg 85%
04:00 +9°C° 0.2 mm 5 mps 735 mmHg 86%
05:00 +10°C° 0.2 mm 4 mps 735 mmHg 87%
06:00 +8°C° 0.2 mm 4 mps 735 mmHg 88%
07:00 +9°C° 0.2 mm 3 mps 736 mmHg 90%
08:00 +10°C° 0.1 mm 4 mps 736 mmHg 86%
09:00 +9°C° 0.1 mm 5 mps 737 mmHg 83%
10:00 +10°C° 0.1 mm 5 mps 737 mmHg 80%
11:00 +10°C° 0.1 mm 5 mps 737 mmHg 79%
12:00 +10°C° 0.1 mm 5 mps 737 mmHg 78%
13:00 +12°C° 0.1 mm 4 mps 738 mmHg 78%
14:00 +12°C° 0.1 mm 4 mps 738 mmHg 77%
15:00 +11°C° 0.1 mm 3 mps 738 mmHg 77%
16:00 +11°C° 0.1 mm 3 mps 738 mmHg 77%
17:00 +11°C° 0 mm 3 mps 738 mmHg 79%
18:00 +10°C° 0 mm 3 mps 739 mmHg 81%
19:00 +10°C° 0 mm 3 mps 739 mmHg 83%
20:00 +10°C° 0 mm 3 mps 739 mmHg 84%
21:00 +10°C° 0 mm 3 mps 739 mmHg 85%
22:00 +8°C° 0 mm 4 mps 739 mmHg 86%
23:00 +10°C° 0 mm 3 mps 739 mmHg 85%

30 October, Friday

Time Temperature Precipitation Wind Pressure Humidity
00:00 +10°C° 0 mm 3 mps 739 mmHg 84%
01:00 +11°C° 0 mm 3 mps 739 mmHg 84%
02:00 +11°C° 0 mm 3 mps 740 mmHg 84%
03:00 +11°C° 0 mm 3 mps 740 mmHg 83%
04:00 +11°C° 0 mm 3 mps 740 mmHg 83%
05:00 +10°C° 0 mm 3 mps 740 mmHg 85%
06:00 +10°C° 0 mm 3 mps 740 mmHg 87%
07:00 +9°C° 0 mm 2 mps 740 mmHg 89%
08:00 +10°C° 0 mm 3 mps 740 mmHg 84%
09:00 +11°C° 0 mm 3 mps 740 mmHg 80%
10:00 +13°C° 0 mm 3 mps 740 mmHg 75%
11:00 +13°C° 0 mm 3 mps 740 mmHg 72%
12:00 +14°C° 0 mm 3 mps 740 mmHg 69%
13:00 +16°C° 0 mm 3 mps 740 mmHg 66%
14:00 +16°C° 0 mm 3 mps 740 mmHg 70%
15:00 +15°C° 0 mm 2 mps 739 mmHg 74%
16:00 +15°C° 0 mm 2 mps 739 mmHg 77%
17:00 +13°C° 0 mm 2 mps 739 mmHg 81%
18:00 +12°C° 0 mm 2 mps 739 mmHg 84%
19:00 +10°C° 0 mm 2 mps 739 mmHg 88%
20:00 +10°C° 0 mm 2 mps 739 mmHg 87%
21:00 +9°C° 0 mm 2 mps 739 mmHg 86%
22:00 +9°C° 0 mm 2 mps 739 mmHg 86%
23:00 +9°C° 0 mm 2 mps 739 mmHg 85%
Show more

We Need Your Consent

Meteoprog and our Service Providers may store and access personal data such as cookies, device identifiers or other similar technologies on your device and process such data to personalise content and ads, as well as provide social media features and to analyse the traffic.

  • Store and/or access information on your device

    Cookies, device identifiers or other information can be stored or accessed on your device for the purposes indicated above.

  • Personalised ads and content, ad and content measurement, audience insights, and products development

    Ads and content can be personalised based on a profile. More data can be added to better personalise ads and content. Ad and content performance can be measured. Insights about the audience who saw the ads and content can be derived. Such data can be used to develop or improve user’s experience, systems and software.

By clicking ‘I Agree’ you will allow the use of indicated cookies, device identifiers, web beacons or other similar technologies. Your settings can be changed in the browser on your device.

For certain purposes, legitimate interests may be relied on, rather than consent. You can read more about this in our Privacy and Cookie Policy.